Weather History for KMHK - February, 2013

Change the Weather History Date:

Wednesday, February 6, 2013

  Actual Average Record
Temperature  
Mean Temperature 47 °F 31 °F  
Max Temperature 68 °F 43 °F 73 °F (2009)
Min Temperature 26 °F 19 °F -9 °F (2014)
Degree Days  
Heating Degree Days 18 34  
Month to date heating degree days 174 207  
Since 1 July heating degree days 3104 3473  
Cooling Degree Days 0 0  
Month to date cooling degree days 0 0  
Year to date cooling degree days 0 0  
Moisture  
Dew Point 40 °F    
Average Humidity 65    
Maximum Humidity 96    
Minimum Humidity 34    
Precipitation  
Precipitation 0.03 in 0.03 in 1.13 in (2005)
Month to date precipitation 0.03 0.20  
Year to date precipitation 0.72 0.85  
Sea Level Pressure  
Sea Level Pressure 29.93 in    
Wind  
Wind Speed 6 mph (South)    
Max Wind Speed 22 mph    
Max Gust Speed 28 mph    
Visibility 9 miles    
Events Rain    
T = Trace of Precipitation, MM = Missing Value Source: NWS Daily Summary

Daily Weather History Graph

Daily Weather History Graph

Search for Another Location

Airport or City:

Trip Planner

Search our weather history database for the weather conditions in past years. The results will help you decide how hot, cold, wet, or windy it might be!

Date:

Astronomy

Feb. 06, 2013 Rise Set
Actual Time 7:28 AM CST 5:53 PM CST
Civil Twilight 7:00 AM CST 6:21 PM CST
Nautical Twilight 6:28 AM CST 6:53 PM CST
Astronomical Twilight 5:57 AM CST 7:24 PM CST
Moon 4:12 AM CST (2/6) 2:14 PM CST (2/6)
Length of Visible Light 11h 21m
Length of Day
10h 25m
Waning Crescent, 17% of the Moon is Illuminated
Feb 6
Waning Crescent
Feb 10
New
Feb 17
First Quarter
Feb 25
Full
Mar 4
Last Quarter

Hourly Weather History & Observations

Time (CST) Temp. Windchill Dew Point Humidity Pressure Visibility Wind Dir Wind Speed Gust Speed Precip Events Conditions
12:52 AM 28.9 °F - 25.0 °F 85% 30.09 in 10.0 mi Calm Calm - N/A   Clear
1:52 AM 27.0 °F - 21.9 °F 81% 30.07 in 10.0 mi Calm Calm - N/A   Clear
2:52 AM 34.0 °F 29.8 °F 26.1 °F 73% 30.06 in 10.0 mi NNE 4.6 mph - N/A   Clear
3:52 AM 30.9 °F 26.2 °F 25.0 °F 79% 30.05 in 10.0 mi NE 4.6 mph - N/A   Clear
4:52 AM 37.9 °F 35.5 °F 27.0 °F 65% 30.04 in 10.0 mi Variable 3.5 mph - N/A   Clear
5:52 AM 39.0 °F - 26.1 °F 60% 30.05 in 10.0 mi Calm Calm - N/A   Clear
6:52 AM 37.9 °F 35.5 °F 26.1 °F 62% 30.05 in 10.0 mi WSW 3.5 mph - N/A   Clear
7:52 AM 39.9 °F 33.9 °F 28.0 °F 63% 30.05 in 10.0 mi South 9.2 mph - N/A   Clear
8:52 AM 44.1 °F 40.1 °F 30.0 °F 58% 30.04 in 10.0 mi South 6.9 mph 16.1 mph N/A   Clear
9:52 AM 51.1 °F - 30.9 °F 46% 30.01 in 10.0 mi South 17.3 mph 23.0 mph N/A   Clear
10:52 AM 55.0 °F - 32.0 °F 42% 30.01 in 10.0 mi South 13.8 mph - N/A   Clear
11:52 AM 60.1 °F - 32.0 °F 35% 29.97 in 10.0 mi South 11.5 mph - N/A   Partly Cloudy
12:52 PM 63.0 °F - 34.0 °F 34% 29.93 in 10.0 mi South 10.4 mph 19.6 mph N/A   Scattered Clouds
1:52 PM 64.9 °F - 39.0 °F 39% 29.88 in 9.0 mi South 13.8 mph 20.7 mph N/A   Scattered Clouds
2:52 PM 64.9 °F - 46.9 °F 52% 29.84 in 10.0 mi SSW 16.1 mph 27.6 mph N/A   Mostly Cloudy
3:52 PM 64.9 °F - 48.0 °F 54% 29.83 in 10.0 mi SSW 15.0 mph - N/A   Mostly Cloudy
4:52 PM 64.0 °F - 48.9 °F 58% 29.82 in 10.0 mi SSW 11.5 mph 20.7 mph N/A   Overcast
5:52 PM 61.0 °F - 50.0 °F 67% 29.82 in 10.0 mi South 5.8 mph - N/A   Mostly Cloudy
6:52 PM 57.9 °F - 48.9 °F 72% 29.83 in 10.0 mi Calm Calm - N/A   Overcast
7:20 PM 57.2 °F - 48.2 °F 72% 29.82 in 10.0 mi Calm Calm - N/A   Overcast
7:52 PM 55.9 °F - 48.0 °F 75% 29.84 in 10.0 mi Calm Calm - N/A   Overcast
8:02 PM 57.2 °F - 48.2 °F 72% 29.83 in 10.0 mi Calm Calm - N/A   Overcast
8:52 PM 57.0 °F - 48.9 °F 74% 29.86 in 10.0 mi Calm Calm - N/A   Overcast
9:29 PM 55.4 °F - 48.2 °F 77% 29.86 in 8.0 mi Calm Calm - N/A   Overcast
9:52 PM 54.0 °F - 48.0 °F 80% 29.87 in 8.0 mi Calm Calm - N/A   Overcast
10:05 PM 53.6 °F - 50.0 °F 88% 29.86 in 7.0 mi Calm Calm - N/A   Mostly Cloudy
10:19 PM 53.6 °F - 48.2 °F 82% 29.86 in 7.0 mi Calm Calm - 0.00 in Rain Light Rain
10:42 PM 51.8 °F - 48.2 °F 88% 29.86 in 2.5 mi Calm Calm - 0.03 in Rain Rain
10:50 PM 51.8 °F - 50.0 °F 94% 29.86 in 6.0 mi ESE 3.5 mph - 0.03 in Rain Light Rain
10:52 PM 52.0 °F - 50.0 °F 93% 29.86 in 6.0 mi Calm Calm - 0.03 in   Overcast
11:19 PM 53.6 °F - 50.0 °F 88% 29.86 in 5.0 mi Calm Calm - N/A   Overcast